Weather reports worldwide

Advertisment
Shoeburyness Landwick, United Kingdom (3693): temperature & dewpoint: 11.07.2018 14:00:00 - 17.07.2018 14:00:00 (BST)Shoeburyness Landwick, United Kingdom (3693): temperature -20cm & temperature -100cm: 11.07.2018 14:00:00 - 17.07.2018 14:00:00 (BST)Shoeburyness Landwick, United Kingdom (3693): wind speed: 11.07.2018 14:00:00 - 17.07.2018 14:00:00 (BST)Shoeburyness Landwick, United Kingdom (3693): wind direction: 11.07.2018 14:00:00 - 17.07.2018 14:00:00 (BST)Shoeburyness Landwick, United Kingdom (3693): reduced air pressure: 11.07.2018 14:00:00 - 17.07.2018 14:00:00 (BST)Shoeburyness Landwick, United Kingdom (3693): visibility: 11.07.2018 14:00:00 - 17.07.2018 14:00:00 (BST)Shoeburyness Landwick, United Kingdom (3693): sunshine duration: 11.07.2018 14:00:00 - 17.07.2018 14:00:00 (BST)Shoeburyness Landwick, United Kingdom (3693): precipitation: 11.07.2018 14:00:00 - 17.07.2018 14:00:00 (BST)
Date & Time tt [°C] td [°C] tt -20cm [°C] tt -100cm [°C] ff [km/h] ff [kn] dd ppp [hPa] vv [km] sd [min] rr [mm]
17.07.2018 14:00:00 - - - - - - - - - - 0,0
17.07.2018 13:00:00 23,9 9,4 - - 21 11 WSW 1015,9 35 60 0,0
17.07.2018 12:00:00 22,9 9,3 - - 21 11 W 1015,8 30 60 0,0
17.07.2018 11:00:00 21,7 8,9 - - 21 11 W 1015,8 40 60 0,0
17.07.2018 10:00:00 20,4 10,3 20,5 17,4 16 9 WNW 1015,5 50 60 0,0
17.07.2018 09:00:00 18,5 11,4 - - 21 11 W 1015,4 26 60 0,0
17.07.2018 08:00:00 17,4 11,5 - - 21 11 WNW 1015,2 50 60 0,0
17.07.2018 07:00:00 16,3 11,2 - - 16 9 W 1014,7 30 60 0,0
17.07.2018 06:00:00 15,8 10,9 - - 13 7 W 1014,0 50 12 0,0
17.07.2018 05:00:00 16,3 10,8 - - 11 6 W 1013,7 50 0 0,0
17.07.2018 04:00:00 17,1 10,3 - - 11 6 W 1013,4 50 0 0,0
17.07.2018 03:00:00 17,9 9,9 - - 13 7 W 1013,4 50 0 0,0
17.07.2018 02:00:00 18,2 11,4 - - 15 8 WNW 1013,5 45 0 0,0
17.07.2018 01:00:00 19,2 13,6 - - 15 8 WNW 1013,2 45 - 0,0
17.07.2018 00:00:00 20,3 11,8 - - 9 5 W 1012,9 50 0 0,0
16.07.2018 23:00:00 22,7 11,6 - - 15 8 WSW 1012,5 50 0 0,0
16.07.2018 22:00:00 23,4 13,1 - - 13 7 SW 1012,3 50 0 0,0
16.07.2018 21:00:00 25,0 12,1 - - 13 7 WSW 1011,8 45 30 0,0
16.07.2018 20:00:00 25,7 12,6 - - 18 10 WSW 1011,5 45 12 0,0
16.07.2018 19:00:00 24,3 15,5 - - 13 7 S 1011,3 40 0 0,0
16.07.2018 18:00:00 24,5 14,2 - - 15 8 SE 1011,3 50 6 0,0
16.07.2018 17:00:00 25,7 13,0 - - 18 10 SE 1011,8 50 60 0,0
16.07.2018 16:00:00 25,9 13,9 - - 21 11 SE 1012,1 35 54 0,0
16.07.2018 15:00:00 27,0 12,7 - - 16 9 SE 1012,5 27 60 0,0
16.07.2018 14:00:00 26,2 13,1 - - 16 9 SSE 1012,9 50 60 0,0
16.07.2018 13:00:00 25,5 14,2 - - 15 8 SSE 1013,1 30 60 0,0
16.07.2018 12:00:00 25,9 15,0 - - 13 7 SSE 1013,3 30 60 0,0
16.07.2018 11:00:00 26,3 13,7 - - 11 6 ESE 1013,4 40 60 0,0
16.07.2018 10:00:00 25,8 11,2 20,0 17,2 11 6 N 1013,4 35 60 0,0
16.07.2018 09:00:00 23,2 13,2 - - 9 5 N 1013,6 27 60 0,0
16.07.2018 08:00:00 21,0 12,8 - - 11 6 WNW 1013,8 40 60 0,0
16.07.2018 07:00:00 19,1 12,9 - - 5 3 WSW 1013,6 50 60 0,0
16.07.2018 06:00:00 15,7 11,7 - - 9 5 W 1013,5 40 6 0,0
16.07.2018 05:00:00 13,5 11,3 - - 4 2 W 1013,6 23 0 0,0
16.07.2018 04:00:00 15,4 12,3 - - 8 4 WNW 1013,7 23 0 0,0
16.07.2018 03:00:00 16,6 13,1 - - 5 3 W 1013,9 28 0 0,0
16.07.2018 02:00:00 18,0 14,3 - - 11 6 SW 1014,0 50 0 0,0
16.07.2018 01:00:00 17,6 13,4 - - 9 5 SSW 1014,2 45 - 0,0
16.07.2018 00:00:00 18,5 13,3 - - 9 5 S 1014,6 50 0 0,0
15.07.2018 23:00:00 19,3 13,8 - - 11 6 S 1014,4 50 0 0,0
15.07.2018 22:00:00 20,9 14,4 - - 16 9 SSE 1014,2 50 0 0,0
15.07.2018 21:00:00 22,4 14,4 - - 16 9 SSE 1014,0 50 30 0,0
15.07.2018 20:00:00 21,6 16,7 - - 21 11 ESE 1013,6 19 60 0,0
15.07.2018 19:00:00 22,6 15,4 - - 22 12 ESE 1013,7 30 60 0,0
15.07.2018 18:00:00 23,9 13,9 - - 24 13 E 1014,2 30 60 0,0
15.07.2018 17:00:00 23,8 14,1 - - 24 13 E 1014,6 30 60 0,0
15.07.2018 16:00:00 23,7 15,0 - - 22 12 E 1015,1 18 60 0,0
15.07.2018 15:00:00 24,2 15,1 - - 22 12 E 1015,4 20 60 0,0
15.07.2018 14:00:00 23,9 16,0 - - 18 10 E 1015,9 19 60 0,0
15.07.2018 13:00:00 24,1 14,9 - - 18 10 E 1016,2 27 60 0,0
15.07.2018 12:00:00 23,6 13,9 - - 13 7 ESE 1016,7 40 60 0,0
15.07.2018 11:00:00 22,5 17,3 - - 11 6 SE 1016,8 12 60 0,0
15.07.2018 10:00:00 22,7 15,6 19,9 17,2 9 5 SE 1017,0 35 60 0,0
15.07.2018 09:00:00 21,9 14,6 - - 4 2 SE 1017,3 27 60 0,0
15.07.2018 08:00:00 20,2 12,9 - - 4 2 W 1017,3 35 60 0,0
15.07.2018 07:00:00 18,4 15,4 - - 0 0 N 1017,2 35 60 0,0
15.07.2018 06:00:00 13,5 12,0 - - 4 2 WNW 1017,1 40 18 0,0
15.07.2018 05:00:00 13,2 11,6 - - 4 2 W 1017,3 30 0 0,0
15.07.2018 04:00:00 16,0 13,0 - - 8 4 S 1017,7 40 0 0,0
15.07.2018 03:00:00 17,0 13,4 - - 8 4 SSE 1017,9 45 0 0,0
15.07.2018 02:00:00 17,7 13,6 - - 9 5 S 1018,3 35 0 0,0
15.07.2018 01:00:00 18,1 13,3 - - 11 6 SSE 1018,5 50 - 0,0
15.07.2018 00:00:00 17,0 13,5 - - 13 7 SE 1018,5 50 0 0,0
14.07.2018 23:00:00 16,6 14,2 - - 11 6 SE 1018,7 40 0 0,0
14.07.2018 22:00:00 16,9 15,5 - - 11 6 ESE 1018,6 23 0 0,0
14.07.2018 21:00:00 18,3 15,6 - - 8 4 ESE 1018,3 35 30 0,0
14.07.2018 20:00:00 19,7 16,0 - - 15 8 ESE 1018,4 40 60 0,0
14.07.2018 19:00:00 20,1 16,3 - - 18 10 ESE 1018,7 40 60 0,0
14.07.2018 18:00:00 20,3 15,8 - - 21 11 ESE 1019,1 27 60 0,0
14.07.2018 17:00:00 20,6 15,2 - - 22 12 ESE 1019,4 35 60 0,0
14.07.2018 16:00:00 21,3 15,9 - - 21 11 E 1019,7 28 60 0,0
14.07.2018 15:00:00 21,0 14,4 - - 18 10 E 1020,2 50 60 0,0
14.07.2018 14:00:00 21,3 15,4 - - 16 9 E 1020,8 40 60 0,0
14.07.2018 13:00:00 20,7 15,2 - - 16 9 E 1021,1 35 60 0,0
14.07.2018 12:00:00 20,0 14,8 - - 13 7 ESE 1021,5 35 60 0,0
14.07.2018 11:00:00 19,7 14,7 - - 9 5 SE 1021,7 45 60 0,0
14.07.2018 10:00:00 18,5 14,3 19,7 17,2 8 4 SSE 1022,0 35 36 0,0
14.07.2018 09:00:00 18,4 14,0 - - 9 5 SE 1021,9 50 30 0,0
14.07.2018 08:00:00 17,9 14,5 - - 9 5 SE 1021,9 45 48 0,0
14.07.2018 07:00:00 16,6 14,5 - - 8 4 SE 1021,6 30 54 0,0
14.07.2018 06:00:00 12,9 12,7 - - 4 2 ESE 1021,5 14 0 0,0
14.07.2018 05:00:00 12,0 11,4 - - 4 2 SE 1021,5 12 0 0,0
14.07.2018 04:00:00 12,8 11,9 - - 5 3 ENE 1021,7 14 0 0,0
14.07.2018 03:00:00 12,8 11,7 - - 4 2 NE 1022,0 17 0 0,0
14.07.2018 02:00:00 14,3 12,3 - - 8 4 ESE 1022,3 35 0 0,0
14.07.2018 01:00:00 14,9 12,9 - - 18 10 E 1022,3 45 - 0,0
14.07.2018 00:00:00 14,0 12,0 - - 9 5 ESE 1022,7 45 0 0,0
13.07.2018 23:00:00 14,3 11,8 - - 8 4 ESE 1022,7 45 0 0,0
13.07.2018 22:00:00 15,2 12,3 - - 13 7 ESE 1022,4 50 0 0,0
13.07.2018 21:00:00 16,0 12,5 - - 11 6 E 1022,0 50 36 0,0
13.07.2018 20:00:00 17,3 12,6 - - 15 8 E 1021,8 45 60 0,0
13.07.2018 19:00:00 18,1 13,0 - - 15 8 E 1021,7 35 60 0,0
13.07.2018 18:00:00 18,7 13,1 - - 16 9 ESE 1021,7 30 60 0,0
13.07.2018 17:00:00 18,9 13,2 - - 18 10 ESE 1022,0 45 60 0,0
13.07.2018 16:00:00 19,2 12,7 - - 16 9 ESE 1022,4 24 60 0,0
13.07.2018 15:00:00 19,1 13,4 - - 16 9 ESE 1022,8 35 60 0,0
13.07.2018 14:00:00 19,4 12,6 - - 16 9 ESE 1022,9 21 60 0,0
13.07.2018 13:00:00 18,9 12,6 - - 16 9 ESE 1023,2 30 60 0,0
13.07.2018 12:00:00 18,5 12,4 - - 18 10 ESE 1023,3 35 60 0,0
13.07.2018 11:00:00 18,1 11,7 - - 8 4 NE 1023,2 40 30 0,0
13.07.2018 10:00:00 17,0 11,7 19,5 17,2 9 5 NE 1023,3 23 6 0,0
13.07.2018 09:00:00 15,8 12,0 - - 9 5 N 1023,3 20 0 0,0
13.07.2018 08:00:00 15,3 12,2 - - 9 5 N 1023,1 19 0 0,0
13.07.2018 07:00:00 15,3 12,6 - - 11 6 NNE 1022,9 20 0 0,0
13.07.2018 06:00:00 15,1 12,5 - - 9 5 NNE 1022,7 23 0 0,0
13.07.2018 05:00:00 15,2 12,9 - - 9 5 NNE 1022,8 21 0 0,0
13.07.2018 04:00:00 15,5 13,2 - - 9 5 NNE 1022,7 17 0 0,0
13.07.2018 03:00:00 15,8 13,3 - - 11 6 NE 1022,8 21 0 0,0
13.07.2018 02:00:00 16,3 13,8 - - 8 4 ENE 1022,8 30 0 0,0
13.07.2018 01:00:00 16,3 13,8 - - 11 6 E 1022,7 30 - 0,0
13.07.2018 00:00:00 16,0 13,9 - - 11 6 ENE 1022,7 30 0 0,0
12.07.2018 23:00:00 15,8 13,8 - - 9 5 ENE 1022,7 23 0 0,0
12.07.2018 22:00:00 16,3 14,1 - - 11 6 E 1022,4 29 0 0,0
12.07.2018 21:00:00 16,6 14,3 - - 9 5 E 1022,0 28 6 0,0
12.07.2018 20:00:00 17,2 14,2 - - 15 8 E 1021,8 27 42 0,0
12.07.2018 19:00:00 18,3 14,2 - - 13 7 ESE 1021,8 25 60 0,0
12.07.2018 18:00:00 18,8 13,7 - - 15 8 ESE 1021,6 29 60 0,0
12.07.2018 17:00:00 19,3 14,4 - - 13 7 SE 1021,7 21 60 0,0
12.07.2018 16:00:00 18,8 13,6 - - 15 8 SSE 1021,9 15 60 0,0
12.07.2018 15:00:00 18,8 13,2 - - 15 8 SE 1022,3 23 60 0,0
12.07.2018 14:00:00 18,7 13,1 - - 13 7 ESE 1022,5 45 48 0,0
12.07.2018 13:00:00 18,0 12,6 - - 5 3 NNE 1022,7 40 0 0,0
12.07.2018 12:00:00 16,5 12,1 - - 5 3 NNE 1022,9 25 0 0,0
12.07.2018 11:00:00 15,9 11,9 - - 8 4 N 1022,7 22 0 0,0
12.07.2018 10:00:00 15,3 11,8 19,2 17,2 11 6 NNE 1022,4 16 0 0,0
12.07.2018 09:00:00 14,1 12,0 - - 11 6 N 1022,4 13 0 0,0
12.07.2018 08:00:00 13,4 12,3 - - 11 6 N 1022,2 8 0 0,0
12.07.2018 07:00:00 12,9 12,1 - - 11 6 N 1021,9 5 0 0,0
12.07.2018 06:00:00 13,2 12,3 - - 13 7 N 1021,5 5 0 0,0
12.07.2018 05:00:00 13,4 12,9 - - 11 6 N 1021,5 7 0 0,0
12.07.2018 04:00:00 12,9 12,3 - - 9 5 NNE 1021,3 7 0 0,0
12.07.2018 03:00:00 13,4 12,4 - - 9 5 NNE 1021,3 9 0 0,0
12.07.2018 02:00:00 15,2 13,0 - - 15 8 NNE 1021,3 18 0 0,0
12.07.2018 01:00:00 16,4 14,4 - - 5 3 ENE 1021,2 18 - 0,0
12.07.2018 00:00:00 15,8 13,9 - - 9 5 ENE 1021,6 15 0 0,0
11.07.2018 23:00:00 16,0 14,3 - - 13 7 E 1021,7 15 0 0,0
11.07.2018 22:00:00 14,9 12,9 - - 8 4 E 1021,5 15 0 0,0
11.07.2018 21:00:00 16,4 13,0 - - 9 5 E 1021,0 24 42 0,0
11.07.2018 20:00:00 18,0 13,3 - - 13 7 E 1021,0 23 60 0,0
11.07.2018 19:00:00 18,9 14,0 - - 11 6 SE 1020,8 20 60 0,0
11.07.2018 18:00:00 19,8 14,2 - - 13 7 ESE 1020,6 20 60 0,0
11.07.2018 17:00:00 20,4 13,0 - - 11 6 SE 1020,7 35 12 0,0
11.07.2018 16:00:00 20,6 12,3 - - 11 6 N 1020,9 25 18 0,0
11.07.2018 15:00:00 20,5 12,5 - - 15 8 NNW 1021,4 20 24 0,0
11.07.2018 14:00:00 17,5 12,5 - - 16 9 NE 1021,9 35 0 0,0

tt = temperature
td = dewpoint
tt -20cm = temperature -20cm
tt -100cm = temperature -100cm
ff = wind speed
dd = wind direction
ppp = reduced air pressure
vv = visibility
sd = sunshine duration
rr = precipitation

Next stations